Location: Marstown
(39.5056°N, 77.0820°W)
Time: 19:39:23
(UTC-05:00)

Tiangong 1 - Visible Passes

Search period start: 20 January 2018 00:00
Search period end: 30 January 2018 00:00
Orbit: 262 x 287 km, 42.8° (Epoch: 20 January)

Date Brightness Start Highest point End Pass type
(mag) Time Alt. Az. Time Alt. Az. Time Alt. Az.
20 Jan 1.2 17:57:55 10° WNW 18:00:16 38° N 18:02:00 15° ENE visible
21 Jan 0.8 17:57:24 10° WNW 17:59:49 47° N 18:01:44 14° E visible
22 Jan 0.4 17:56:42 10° WNW 17:59:10 69° NNE 18:01:27 11° E visible
23 Jan 0.6 17:55:53 10° WNW 17:58:20 73° SSW 18:00:47 10° ESE visible
24 Jan 1.7 17:54:58 10° W 17:57:19 40° SSW 17:59:39 10° SE visible
25 Jan 2.9 17:54:03 10° W 17:56:06 23° SSW 17:58:07 10° SSE visible
26 Jan 3.6 17:53:22 10° WSW 17:54:40 13° SW 17:55:57 10° S visible
